Location: Staunton
(38.1490°N, 79.0720°W)
Time: 21:37:32
(UTC-04:00)

ISS - Pass Details

Date: 20 May 2018
Orbit: 402 x 407 km, 51.6° (Epoch: 23 May)

Event Time Altitude Azimuth Distance (km) Brightness Sun altitude
Rises 03:24:57 0° 320° (NW) 2,317 0.2 -24.1°
Reaches altitude 10° 03:27:55 10° 349° (N) 1,456 -0.5 -23.8°
Maximum altitude 03:29:33 13° 20° (NNE) 1,283 -0.4 -23.6°
Drops below altitude 10° 03:31:11 10° 50° (NE) 1,454 0.0 -23.4°
Sets 03:34:09 0° 79° (E) 2,311 0.7 -23.1°
